Tracking 32139 objects as of 15-Nov-2025
HD Live streaming from Space Station
objects crossing your sky now

STARLINK-30994

Track STARLINK-30994 now!
10-day predictions
STARLINK-30994 is classified as:


NORAD ID: 58483
Int'l Code: 2023-186L
Perigee: 489.6 km
Apogee: 490.9 km
Inclination: 43.0 °
Period: 94.3 minutes
Semi major axis: 6861 km
RCS: Unknown
Launch date: December 3, 2023
Source: United States (US)
Launch site: AIR FORCE EASTERN TEST RANGE (AFETR)
Your satellite tracking list
Your tracking list is empty




NASA's NSSDC Master Catalog

Two Line Element Set (TLE):
1 58483U 23186L   25319.32539161  .00009982  00000-0  37204-3 0  9995
2 58483  43.0011 186.0352 0000980 280.6929  79.3812 15.27556585110312
Source of the keplerian elements: AFSPC